Time,TemperatureF,DewpointF,PressureIn,WindDirection,WindDirectionDegrees,WindSpeedMPH,WindSpeedGustMPH,Humidity,HourlyPrecipIn,Conditions,Clouds,dailyrainin,SolarRadiationWatts/m^2,SoftwareType,DateUTC
2013-01-01 00:04:00,32.9,29.7,30.20,SE,127,0.0,0.0,88,0.00,,,0.00,0,Wunderground v.1.15,2013-01-01 08:04:00,
2013-01-01 00:10:00,32.9,29.7,30.19,SE,127,0.0,0.0,88,0.00,,,0.00,0,Wunderground v.1.15,2013-01-01 08:10:00,
2013-01-01 00:16:00,33.2,30.0,30.19,SE,127,0.0,0.0,88,0.00,,,0.00,0,Wunderground v.1.15,2013-01-01 08:16:00,
2013-01-01 00:22:00,33.3,30.1,30.19,SE,127,0.0,0.0,88,0.00,,,0.00,0,Wunderground v.1.15,2013-01-01 08:22:00,
2013-01-01 00:28:00,33.3,30.1,30.19,SE,127,0.0,0.0,88,0.00,,,0.00,0,Wunderground v.1.15,2013-01-01 08:28:00,
2013-01-01 00:34:00,33.2,30.0,30.19,SE,127,0.0,0.0,88,0.00,,,0.00,0,Wunderground v.1.15,2013-01-01 08:34:00,
2013-01-01 00:40:00,33.0,29.8,30.19,SE,127,0.0,0.0,88,0.00,,,0.00,0,Wunderground v.1.15,2013-01-01 08:40:00,
2013-01-01 00:46:00,32.8,29.6,30.19,SE,127,0.0,0.0,88,0.00,,,0.00,0,Wunderground v.1.15,2013-01-01 08:46:00,
2013-01-01 00:52:00,32.7,29.5,30.19,SE,127,0.0,0.0,88,0.00,,,0.00,0,Wunderground v.1.15,2013-01-01 08:52:00,
2013-01-01 00:58:00,32.8,29.9,30.18,SE,127,0.0,0.0,89,0.00,,,0.00,0,Wunderground v.1.15,2013-01-01 08:58:00,
2013-01-01 01:04:00,32.7,29.8,30.18,SE,127,0.0,0.0,89,0.00,,,0.00,0,Wunderground v.1.15,2013-01-01 09:04:00,
2013-01-01 01:10:00,32.5,29.3,30.18,SE,127,0.0,0.0,88,0.00,,,0.00,0,Wunderground v.1.15,2013-01-01 09:10:00,
2013-01-01 01:16:00,32.3,29.1,30.18,SE,127,0.0,0.0,88,0.00,,,0.00,0,Wunderground v.1.15,2013-01-01 09:16:00,
2013-01-01 01:22:00,32.2,29.3,30.18,SE,127,0.0,0.0,89,0.00,,,0.00,0,Wunderground v.1.15,2013-01-01 09:22:00,
2013-01-01 01:28:00,32.0,29.1,30.19,SE,127,0.0,0.0,89,0.00,,,0.00,0,Wunderground v.1.15,2013-01-01 09:28:00,
2013-01-01 01:34:00,32.1,29.2,30.19,NNW,341,0.0,0.0,89,0.00,,,0.00,0,Wunderground v.1.15,2013-01-01 09:34:00,
2013-01-01 01:40:00,32.4,29.5,30.20,NNW,329,0.0,0.0,89,0.00,,,0.00,0,Wunderground v.1.15,2013-01-01 09:40:00,
2013-01-01 01:46:00,32.7,29.8,30.20,NNW,331,0.0,0.0,89,0.00,,,0.00,0,Wunderground v.1.15,2013-01-01 09:46:00,
2013-01-01 01:52:00,32.8,29.9,30.20,NNW,335,0.0,0.0,89,0.00,,,0.00,0,Wunderground v.1.15,2013-01-01 09:52:00,
2013-01-01 01:58:00,32.8,29.9,30.21,NNW,340,1.0,1.0,89,0.00,,,0.00,0,Wunderground v.1.15,2013-01-01 09:58:00,
2013-01-01 02:04:00,32.9,30.0,30.21,NNW,343,2.0,4.0,89,0.00,,,0.00,0,Wunderground v.1.15,2013-01-01 10:04:00,
2013-01-01 02:10:00,33.0,30.1,30.21,North,355,2.0,2.0,89,0.00,,,0.00,0,Wunderground v.1.15,2013-01-01 10:10:00,
2013-01-01 02:16:00,33.2,30.3,30.21,NE,44,3.0,6.0,89,0.00,,,0.00,0,Wunderground v.1.15,2013-01-01 10:16:00,
2013-01-01 02:22:00,33.3,30.1,30.22,North,11,3.0,3.0,88,0.00,,,0.00,0,Wunderground v.1.15,2013-01-01 10:22:00,
2013-01-01 02:28:00,33.5,30.3,30.22,North,355,3.0,3.0,88,0.00,,,0.00,0,Wunderground v.1.15,2013-01-01 10:28:00,
2013-01-01 02:34:00,33.6,30.4,30.21,North,360,3.0,3.0,88,0.00,,,0.00,0,Wunderground v.1.15,2013-01-01 10:34:00,
2013-01-01 02:40:00,33.6,30.4,30.21,North,360,2.0,2.0,88,0.00,,,0.00,0,Wunderground v.1.15,2013-01-01 10:40:00,
2013-01-01 02:46:00,33.5,30.3,30.21,North,360,2.0,2.0,88,0.00,,,0.00,0,Wunderground v.1.15,2013-01-01 10:46:00,
2013-01-01 02:52:00,33.3,30.1,30.21,North,360,2.0,2.0,88,0.00,,,0.00,0,Wunderground v.1.15,2013-01-01 10:52:00,
2013-01-01 02:58:00,33.1,29.9,30.22,North,360,1.0,3.0,88,0.00,,,0.00,0,Wunderground v.1.15,2013-01-01 10:58:00,
2013-01-01 03:04:00,33.0,29.8,30.22,North,349,2.0,4.0,88,0.00,,,0.00,0,Wunderground v.1.15,2013-01-01 11:04:00,
2013-01-01 03:10:00,33.1,30.2,30.22,NNW,339,3.0,4.0,89,0.00,,,0.00,0,Wunderground v.1.15,2013-01-01 11:10:00,
2013-01-01 03:16:00,33.2,30.3,30.22,NNW,334,2.0,4.0,89,0.00,,,0.00,0,Wunderground v.1.15,2013-01-01 11:16:00,
2013-01-01 03:22:00,33.2,30.3,30.22,NNW,332,2.0,4.0,89,0.00,,,0.00,0,Wunderground v.1.15,2013-01-01 11:22:00,
2013-01-01 03:28:00,33.3,30.4,30.23,NNW,331,2.0,4.0,89,0.00,,,0.00,0,Wunderground v.1.15,2013-01-01 11:28:00,
2013-01-01 03:34:00,33.4,30.5,30.23,NW,325,3.0,3.0,89,0.00,,,0.00,0,Wunderground v.1.15,2013-01-01 11:34:00,
2013-01-01 03:40:00,33.5,30.6,30.23,NW,326,2.0,2.0,89,0.00,,,0.00,0,Wunderground v.1.15,2013-01-01 11:40:00,
2013-01-01 03:46:00,33.7,30.8,30.23,NW,325,2.0,3.0,89,0.00,,,0.00,0,Wunderground v.1.15,2013-01-01 11:46:00,
2013-01-01 03:52:00,33.9,31.0,30.23,NW,323,3.0,3.0,89,0.00,,,0.00,0,Wunderground v.1.15,2013-01-01 11:52:00,
2013-01-01 03:58:00,33.9,31.0,30.23,NW,323,2.0,4.0,89,0.00,,,0.00,0,Wunderground v.1.15,2013-01-01 11:58:00,
2013-01-01 04:04:00,33.9,31.0,30.23,NW,323,2.0,7.0,89,0.00,,,0.00,0,Wunderground v.1.15,2013-01-01 12:04:00,
2013-01-01 04:10:00,33.9,31.0,30.23,NW,325,4.0,4.0,89,0.00,,,0.00,0,Wunderground v.1.15,2013-01-01 12:10:00,
2013-01-01 04:16:00,33.9,31.0,30.22,NW,323,4.0,4.0,89,0.00,,,0.00,0,Wunderground v.1.15,2013-01-01 12:16:00,
2013-01-01 04:22:00,33.9,31.0,30.22,NW,324,3.0,3.0,89,0.00,,,0.00,0,Wunderground v.1.15,2013-01-01 12:22:00,
2013-01-01 04:28:00,33.9,31.0,30.22,NNW,329,3.0,4.0,89,0.00,,,0.00,0,Wunderground v.1.15,2013-01-01 12:28:00,
2013-01-01 04:34:00,33.9,31.0,30.21,NNW,327,3.0,6.0,89,0.00,,,0.00,0,Wunderground v.1.15,2013-01-01 12:34:00,
2013-01-01 04:40:00,33.9,31.0,30.21,NNW,327,3.0,3.0,89,0.00,,,0.00,0,Wunderground v.1.15,2013-01-01 12:40:00,
2013-01-01 04:46:00,33.9,31.0,30.21,NW,321,4.0,5.0,89,0.00,,,0.00,0,Wunderground v.1.15,2013-01-01 12:46:00,
2013-01-01 04:52:00,33.9,31.0,30.21,NW,322,4.0,9.0,89,0.00,,,0.00,0,Wunderground v.1.15,2013-01-01 12:52:00,
2013-01-01 04:58:00,33.9,31.0,30.21,NW,325,3.0,9.0,89,0.00,,,0.00,0,Wunderground v.1.15,2013-01-01 12:58:00,
2013-01-01 05:04:00,33.9,31.0,30.21,NW,316,3.0,7.0,89,0.00,,,0.00,0,Wunderground v.1.15,2013-01-01 13:04:00,
2013-01-01 05:10:00,33.9,30.7,30.21,NW,317,4.0,4.0,88,0.00,,,0.00,0,Wunderground v.1.15,2013-01-01 13:10:00,
2013-01-01 05:16:00,34.2,31.0,30.21,NW,323,4.0,6.0,88,0.00,,,0.00,0,Wunderground v.1.15,2013-01-01 13:16:00,
2013-01-01 05:22:00,34.3,31.1,30.22,NW,315,4.0,5.0,88,0.00,,,0.00,0,Wunderground v.1.15,2013-01-01 13:22:00,
2013-01-01 05:28:00,34.4,30.9,30.22,NW,323,4.0,7.0,87,0.00,,,0.00,0,Wunderground v.1.15,2013-01-01 13:28:00,
2013-01-01 05:34:00,34.5,31.0,30.22,NNW,331,4.0,5.0,87,0.00,,,0.00,0,Wunderground v.1.15,2013-01-01 13:34:00,
2013-01-01 05:40:00,34.6,30.8,30.22,NNW,337,4.0,4.0,86,0.00,,,0.00,0,Wunderground v.1.15,2013-01-01 13:40:00,
2013-01-01 05:46:00,34.7,30.9,30.22,NW,311,4.0,5.0,86,0.00,,,0.00,0,Wunderground v.1.15,2013-01-01 13:46:00,
2013-01-01 05:52:00,34.8,30.8,30.22,NW,323,4.0,9.0,85,0.00,,,0.00,0,Wunderground v.1.15,2013-01-01 13:52:00,
2013-01-01 05:58:00,35.2,31.1,30.22,NW,318,6.0,9.0,85,0.00,,,0.00,0,Wunderground v.1.15,2013-01-01 13:58:00,
2013-01-01 06:04:00,35.5,31.1,30.22,NNW,331,4.0,9.0,84,0.00,,,0.00,0,Wunderground v.1.15,2013-01-01 14:04:00,
2013-01-01 06:10:00,35.8,31.1,30.22,NNW,338,4.0,6.0,83,0.00,,,0.00,0,Wunderground v.1.15,2013-01-01 14:10:00,
2013-01-01 06:16:00,35.9,31.2,30.23,NW,306,5.0,7.0,83,0.00,,,0.00,0,Wunderground v.1.15,2013-01-01 14:16:00,
2013-01-01 06:22:00,36.0,31.0,30.23,NNW,343,5.0,5.0,82,0.00,,,0.00,0,Wunderground v.1.15,2013-01-01 14:22:00,
2013-01-01 06:28:00,36.0,31.0,30.23,NNW,327,5.0,5.0,82,0.00,,,0.00,0,Wunderground v.1.15,2013-01-01 14:28:00,
2013-01-01 06:34:00,36.0,31.0,30.23,NNW,342,4.0,5.0,82,0.00,,,0.00,0,Wunderground v.1.15,2013-01-01 14:34:00,
2013-01-01 06:40:00,36.3,31.0,30.22,NW,318,5.0,5.0,81,0.00,,,0.00,0,Wunderground v.1.15,2013-01-01 14:40:00,
2013-01-01 06:46:00,36.4,31.1,30.23,NW,325,5.0,10.0,81,0.00,,,0.00,0,Wunderground v.1.15,2013-01-01 14:46:00,
2013-01-01 06:52:00,36.6,31.0,30.22,NW,320,5.0,5.0,80,0.00,,,0.00,0,Wunderground v.1.15,2013-01-01 14:52:00,
2013-01-01 06:58:00,36.7,31.1,30.22,NNW,342,4.0,6.0,80,0.00,,,0.00,0,Wunderground v.1.15,2013-01-01 14:58:00,
2013-01-01 07:04:00,36.7,30.8,30.22,NNW,345,2.0,11.0,79,0.00,,,0.00,0,Wunderground v.1.15,2013-01-01 15:04:00,
2013-01-01 07:10:00,36.7,30.8,30.22,NW,323,3.0,3.0,79,0.00,,,0.00,0,Wunderground v.1.15,2013-01-01 15:10:00,
2013-01-01 07:16:00,36.5,30.6,30.22,NNW,327,4.0,5.0,79,0.00,,,0.00,0,Wunderground v.1.15,2013-01-01 15:16:00,
2013-01-01 07:22:00,36.3,30.4,30.22,WNW,298,5.0,7.0,79,0.00,,,0.00,0,Wunderground v.1.15,2013-01-01 15:22:00,
2013-01-01 07:28:00,36.3,30.4,30.22,NW,311,6.0,7.0,79,0.00,,,0.00,5,Wunderground v.1.15,2013-01-01 15:28:00,
2013-01-01 07:34:00,36.1,30.2,30.22,NNW,331,4.0,6.0,79,0.00,,,0.00,7,Wunderground v.1.15,2013-01-01 15:34:00,
2013-01-01 07:40:00,35.9,30.3,30.22,NNW,336,3.0,3.0,80,0.00,,,0.00,9,Wunderground v.1.15,2013-01-01 15:40:00,
2013-01-01 07:46:00,35.8,30.2,30.22,NNW,328,3.0,5.0,80,0.00,,,0.00,14,Wunderground v.1.15,2013-01-01 15:46:00,
2013-01-01 07:52:00,35.7,30.4,30.22,NW,309,4.0,7.0,81,0.00,,,0.00,21,Wunderground v.1.15,2013-01-01 15:52:00,
2013-01-01 07:58:00,35.8,30.2,30.22,NW,321,5.0,9.0,80,0.00,,,0.00,26,Wunderground v.1.15,2013-01-01 15:58:00,
2013-01-01 08:04:00,36.0,30.4,30.22,NW,325,5.0,14.0,80,0.00,,,0.00,30,Wunderground v.1.15,2013-01-01 16:04:00,
2013-01-01 08:10:00,36.1,30.2,30.22,NNW,340,3.0,3.0,79,0.00,,,0.00,33,Wunderground v.1.15,2013-01-01 16:10:00,
2013-01-01 08:16:00,36.4,30.5,30.22,NW,316,4.0,5.0,79,0.00,,,0.00,35,Wunderground v.1.15,2013-01-01 16:16:00,
2013-01-01 08:22:00,36.6,30.4,30.22,NW,325,5.0,5.0,78,0.00,,,0.00,39,Wunderground v.1.15,2013-01-01 16:22:00,
2013-01-01 08:28:00,36.8,30.6,30.22,NNW,336,3.0,5.0,78,0.00,,,0.00,42,Wunderground v.1.15,2013-01-01 16:28:00,
2013-01-01 08:34:00,36.9,30.7,30.22,NNW,340,2.0,3.0,78,0.00,,,0.00,46,Wunderground v.1.15,2013-01-01 16:34:00,
2013-01-01 08:40:00,37.1,30.6,30.22,NNW,342,2.0,2.0,77,0.00,,,0.00,47,Wunderground v.1.15,2013-01-01 16:40:00,
2013-01-01 08:46:00,37.3,30.7,30.21,NW,322,2.0,2.0,77,0.00,,,0.00,47,Wunderground v.1.15,2013-01-01 16:46:00,
2013-01-01 08:52:00,37.6,30.7,30.21,NW,317,2.0,2.0,76,0.00,,,0.00,47,Wunderground v.1.15,2013-01-01 16:52:00,
2013-01-01 08:58:00,37.8,30.9,30.21,NW,325,2.0,6.0,76,0.00,,,0.00,47,Wunderground v.1.15,2013-01-01 16:58:00,
2013-01-01 09:04:00,38.1,30.9,30.21,NW,315,2.0,14.0,75,0.00,,,0.00,49,Wunderground v.1.15,2013-01-01 17:04:00,
2013-01-01 09:10:00,38.5,30.9,30.21,NNE,26,3.0,3.0,74,0.00,,,0.00,49,Wunderground v.1.15,2013-01-01 17:10:00,
2013-01-01 09:16:00,38.8,30.9,30.21,NW,326,3.0,3.0,73,0.00,,,0.00,51,Wunderground v.1.15,2013-01-01 17:16:00,
2013-01-01 09:22:00,39.2,30.9,30.21,NW,325,2.0,2.0,72,0.00,,,0.00,53,Wunderground v.1.15,2013-01-01 17:22:00,
2013-01-01 09:28:00,39.6,31.3,30.22,NW,306,2.0,2.0,72,0.00,,,0.00,148,Wunderground v.1.15,2013-01-01 17:28:00,
2013-01-01 09:34:00,40.2,31.5,30.22,NW,313,2.0,6.0,71,0.00,,,0.00,149,Wunderground v.1.15,2013-01-01 17:34:00,
2013-01-01 09:40:00,40.8,31.8,30.22,NW,321,2.0,2.0,70,0.00,,,0.00,304,Wunderground v.1.15,2013-01-01 17:40:00,
2013-01-01 09:46:00,41.5,32.1,30.22,NW,325,3.0,6.0,69,0.00,,,0.00,327,Wunderground v.1.15,2013-01-01 17:46:00,
2013-01-01 09:52:00,42.2,32.0,30.23,NW,313,2.0,2.0,67,0.00,,,0.00,339,Wunderground v.1.15,2013-01-01 17:52:00,
2013-01-01 09:58:00,42.8,32.2,30.23,NW,322,4.0,10.0,66,0.00,,,0.00,350,Wunderground v.1.15,2013-01-01 17:58:00,
2013-01-01 10:04:00,43.2,32.2,30.23,NNW,339,4.0,10.0,65,0.00,,,0.00,364,Wunderground v.1.15,2013-01-01 18:04:00,
2013-01-01 10:10:00,43.9,32.5,30.24,NW,320,2.0,5.0,64,0.00,,,0.00,376,Wunderground v.1.15,2013-01-01 18:10:00,
2013-01-01 10:16:00,44.5,32.7,30.24,NW,306,1.0,10.0,63,0.00,,,0.00,390,Wunderground v.1.15,2013-01-01 18:16:00,
2013-01-01 10:22:00,44.6,32.8,30.24,NW,312,2.0,4.0,63,0.00,,,0.00,404,Wunderground v.1.15,2013-01-01 18:22:00,
2013-01-01 10:28:00,44.6,32.4,30.25,NNW,343,4.0,6.0,62,0.00,,,0.00,417,Wunderground v.1.15,2013-01-01 18:28:00,
2013-01-01 10:34:00,44.7,32.1,30.25,NNE,26,4.0,4.0,61,0.00,,,0.00,425,Wunderground v.1.15,2013-01-01 18:34:00,
2013-01-01 10:40:00,44.9,32.7,30.25,NW,321,3.0,4.0,62,0.00,,,0.00,438,Wunderground v.1.15,2013-01-01 18:40:00,
2013-01-01 10:46:00,44.9,32.3,30.25,NNE,15,6.0,15.0,61,0.00,,,0.00,443,Wunderground v.1.15,2013-01-01 18:46:00,
2013-01-01 10:52:00,44.9,33.1,30.25,NNW,340,6.0,7.0,63,0.00,,,0.00,455,Wunderground v.1.15,2013-01-01 18:52:00,
2013-01-01 10:58:00,45.3,32.6,30.25,NNE,32,5.0,8.0,61,0.00,,,0.00,464,Wunderground v.1.15,2013-01-01 18:58:00,
2013-01-01 11:04:00,45.6,32.9,30.24,NNE,20,6.0,13.0,61,0.00,,,0.00,473,Wunderground v.1.15,2013-01-01 19:04:00,
2013-01-01 11:10:00,45.6,32.9,30.24,North,355,6.0,6.0,61,0.00,,,0.00,478,Wunderground v.1.15,2013-01-01 19:10:00,
2013-01-01 11:16:00,45.9,33.2,30.24,NNW,344,5.0,8.0,61,0.00,,,0.00,487,Wunderground v.1.15,2013-01-01 19:16:00,
2013-01-01 11:22:00,46.3,33.6,30.24,NNE,26,3.0,5.0,61,0.00,,,0.00,492,Wunderground v.1.15,2013-01-01 19:22:00,
2013-01-01 11:28:00,46.7,34.0,30.24,NNW,339,4.0,7.0,61,0.00,,,0.00,499,Wunderground v.1.15,2013-01-01 19:28:00,
2013-01-01 11:34:00,47.3,34.5,30.23,North,355,2.0,4.0,61,0.00,,,0.00,504,Wunderground v.1.15,2013-01-01 19:34:00,
2013-01-01 11:40:00,47.5,33.9,30.23,NNW,339,1.0,1.0,59,0.00,,,0.00,508,Wunderground v.1.15,2013-01-01 19:40:00,
2013-01-01 11:46:00,47.7,33.6,30.23,NE,38,2.0,4.0,58,0.00,,,0.00,513,Wunderground v.1.15,2013-01-01 19:46:00,
2013-01-01 11:52:00,48.0,33.9,30.23,NNW,336,2.0,4.0,58,0.00,,,0.00,513,Wunderground v.1.15,2013-01-01 19:52:00,
2013-01-01 11:58:00,48.4,34.3,30.22,NW,323,2.0,9.0,58,0.00,,,0.00,517,Wunderground v.1.15,2013-01-01 19:58:00,
2013-01-01 12:04:00,48.8,34.2,30.22,North,355,2.0,16.0,57,0.00,,,0.00,522,Wunderground v.1.15,2013-01-01 20:04:00,
2013-01-01 12:10:00,48.6,33.6,30.22,NNW,338,2.0,2.0,56,0.00,,,0.00,524,Wunderground v.1.15,2013-01-01 20:10:00,
2013-01-01 12:16:00,48.8,34.2,30.21,NNW,338,2.0,3.0,57,0.00,,,0.00,526,Wunderground v.1.15,2013-01-01 20:16:00,
2013-01-01 12:22:00,49.1,34.5,30.21,North,355,2.0,8.0,57,0.00,,,0.00,527,Wunderground v.1.15,2013-01-01 20:22:00,
2013-01-01 12:28:00,49.4,33.9,30.21,WNW,289,2.0,8.0,55,0.00,,,0.00,529,Wunderground v.1.15,2013-01-01 20:28:00,
2013-01-01 12:34:00,49.3,34.3,30.21,NNW,346,4.0,4.0,56,0.00,,,0.00,529,Wunderground v.1.15,2013-01-01 20:34:00,
2013-01-01 12:40:00,49.8,34.3,30.21,NW,323,3.0,3.0,55,0.00,,,0.00,529,Wunderground v.1.15,2013-01-01 20:40:00,
2013-01-01 12:46:00,50.0,33.5,30.20,NNW,340,3.0,8.0,53,0.00,,,0.00,526,Wunderground v.1.15,2013-01-01 20:46:00,
2013-01-01 12:52:00,49.9,33.0,30.20,NNE,30,4.0,5.0,52,0.00,,,0.00,524,Wunderground v.1.15,2013-01-01 20:52:00,
2013-01-01 12:58:00,50.3,33.3,30.20,NNW,338,5.0,9.0,52,0.00,,,0.00,522,Wunderground v.1.15,2013-01-01 20:58:00,
2013-01-01 13:04:00,50.5,33.5,30.20,NNE,22,5.0,12.0,52,0.00,,,0.00,517,Wunderground v.1.15,2013-01-01 21:04:00,
2013-01-01 13:10:00,50.8,32.8,30.19,NNE,13,3.0,3.0,50,0.00,,,0.00,512,Wunderground v.1.15,2013-01-01 21:10:00,
2013-01-01 13:16:00,51.1,33.1,30.19,North,11,2.0,4.0,50,0.00,,,0.00,506,Wunderground v.1.15,2013-01-01 21:16:00,
2013-01-01 13:22:00,51.5,34.0,30.19,North,10,2.0,2.0,51,0.00,,,0.00,503,Wunderground v.1.15,2013-01-01 21:22:00,
2013-01-01 13:28:00,51.9,34.3,30.19,NNE,23,1.0,2.0,51,0.00,,,0.00,494,Wunderground v.1.15,2013-01-01 21:28:00,
2013-01-01 13:34:00,52.7,35.1,30.19,North,355,0.0,1.0,51,0.00,,,0.00,489,Wunderground v.1.15,2013-01-01 21:34:00,
2013-01-01 13:40:00,52.8,35.2,30.19,NNW,328,1.0,1.0,51,0.00,,,0.00,482,Wunderground v.1.15,2013-01-01 21:40:00,
2013-01-01 13:46:00,52.4,34.8,30.19,NNE,20,2.0,2.0,51,0.00,,,0.00,473,Wunderground v.1.15,2013-01-01 21:46:00,
2013-01-01 13:52:00,52.3,35.2,30.19,North,355,3.0,3.0,52,0.00,,,0.00,462,Wunderground v.1.15,2013-01-01 21:52:00,
2013-01-01 13:58:00,52.2,36.0,30.19,NNE,25,3.0,8.0,54,0.00,,,0.00,454,Wunderground v.1.15,2013-01-01 21:58:00,
2013-01-01 14:04:00,52.2,35.6,30.19,NW,324,2.0,14.0,53,0.00,,,0.00,445,Wunderground v.1.15,2013-01-01 22:04:00,
2013-01-01 14:10:00,52.1,35.9,30.19,NW,317,1.0,3.0,54,0.00,,,0.00,432,Wunderground v.1.15,2013-01-01 22:10:00,
2013-01-01 14:16:00,52.1,35.9,30.19,NNW,346,1.0,3.0,54,0.00,,,0.00,424,Wunderground v.1.15,2013-01-01 22:16:00,
2013-01-01 14:22:00,52.1,35.9,30.18,NNE,21,1.0,1.0,54,0.00,,,0.00,413,Wunderground v.1.15,2013-01-01 22:22:00,
2013-01-01 14:28:00,52.3,35.7,30.18,NNE,19,0.0,1.0,53,0.00,,,0.00,404,Wunderground v.1.15,2013-01-01 22:28:00,
2013-01-01 14:34:00,52.6,36.4,30.18,NNW,343,0.0,0.0,54,0.00,,,0.00,390,Wunderground v.1.15,2013-01-01 22:34:00,
2013-01-01 14:40:00,52.7,36.0,30.18,North,350,0.0,0.0,53,0.00,,,0.00,378,Wunderground v.1.15,2013-01-01 22:40:00,
2013-01-01 14:46:00,52.6,35.9,30.18,NNW,344,1.0,1.0,53,0.00,,,0.00,366,Wunderground v.1.15,2013-01-01 22:46:00,
2013-01-01 14:52:00,52.6,35.9,30.18,NW,323,1.0,3.0,53,0.00,,,0.00,350,Wunderground v.1.15,2013-01-01 22:52:00,
2013-01-01 14:58:00,52.7,35.6,30.18,NE,38,1.0,3.0,52,0.00,,,0.00,336,Wunderground v.1.15,2013-01-01 22:58:00,
2013-01-01 15:04:00,52.9,35.7,30.18,NW,312,1.0,15.0,52,0.00,,,0.00,322,Wunderground v.1.15,2013-01-01 23:04:00,
2013-01-01 15:10:00,53.0,35.3,30.18,NNE,26,1.0,1.0,51,0.00,,,0.00,308,Wunderground v.1.15,2013-01-01 23:10:00,
2013-01-01 15:16:00,53.1,35.4,30.18,NNE,22,0.0,1.0,51,0.00,,,0.00,274,Wunderground v.1.15,2013-01-01 23:16:00,
2013-01-01 15:22:00,52.8,35.2,30.18,NNE,22,0.0,0.0,51,0.00,,,0.00,209,Wunderground v.1.15,2013-01-01 23:22:00,
2013-01-01 15:28:00,52.9,35.2,30.18,NW,325,0.0,0.0,51,0.00,,,0.00,183,Wunderground v.1.15,2013-01-01 23:28:00,
2013-01-01 15:34:00,52.6,35.0,30.17,NW,311,0.0,1.0,51,0.00,,,0.00,165,Wunderground v.1.15,2013-01-01 23:34:00,
2013-01-01 15:40:00,52.5,34.9,30.17,NW,306,0.0,0.0,51,0.00,,,0.00,211,Wunderground v.1.15,2013-01-01 23:40:00,
2013-01-01 15:46:00,52.6,35.0,30.17,NW,309,0.0,0.0,51,0.00,,,0.00,188,Wunderground v.1.15,2013-01-01 23:46:00,
2013-01-01 15:52:00,52.6,35.0,30.17,NW,309,0.0,0.0,51,0.00,,,0.00,167,Wunderground v.1.15,2013-01-01 23:52:00,
2013-01-01 15:58:00,52.6,35.0,30.17,NW,309,0.0,0.0,51,0.00,,,0.00,142,Wunderground v.1.15,2013-01-01 23:58:00,
2013-01-01 16:04:00,52.9,35.2,30.16,NW,309,0.0,5.0,51,0.00,,,0.00,77,Wunderground v.1.15,2013-01-02 00:04:00,
2013-01-01 16:10:00,52.6,35.5,30.16,NW,309,0.0,0.0,52,0.00,,,0.00,81,Wunderground v.1.15,2013-01-02 00:10:00,
2013-01-01 16:16:00,52.2,35.1,30.16,NW,309,0.0,0.0,52,0.00,,,0.00,54,Wunderground v.1.15,2013-01-02 00:16:00,
2013-01-01 16:22:00,51.7,34.6,30.16,NW,309,0.0,0.0,52,0.00,,,0.00,25,Wunderground v.1.15,2013-01-02 00:22:00,
2013-01-01 16:28:00,51.3,34.7,30.16,NW,309,0.0,0.0,53,0.00,,,0.00,40,Wunderground v.1.15,2013-01-02 00:28:00,
2013-01-01 16:34:00,51.0,34.5,30.16,NW,309,0.0,0.0,53,0.00,,,0.00,18,Wunderground v.1.15,2013-01-02 00:34:00,
2013-01-01 16:40:00,50.4,34.4,30.16,NW,309,0.0,0.0,54,0.00,,,0.00,14,Wunderground v.1.15,2013-01-02 00:40:00,
2013-01-01 16:46:00,50.0,34.9,30.15,NW,309,0.0,0.0,56,0.00,,,0.00,11,Wunderground v.1.15,2013-01-02 00:46:00,
2013-01-01 16:52:00,49.5,34.9,30.15,NW,309,0.0,0.0,57,0.00,,,0.00,9,Wunderground v.1.15,2013-01-02 00:52:00,
2013-01-01 16:58:00,48.9,35.2,30.15,NW,309,0.0,0.0,59,0.00,,,0.00,5,Wunderground v.1.15,2013-01-02 00:58:00,
2013-01-01 17:04:00,48.2,35.0,30.15,NW,309,0.0,4.0,60,0.00,,,0.00,0,Wunderground v.1.15,2013-01-02 01:04:00,
2013-01-01 17:10:00,47.5,35.1,30.15,NW,309,0.0,0.0,62,0.00,,,0.00,0,Wunderground v.1.15,2013-01-02 01:10:00,
2013-01-01 17:16:00,46.8,34.9,30.15,NW,309,0.0,0.0,63,0.00,,,0.00,0,Wunderground v.1.15,2013-01-02 01:16:00,
2013-01-01 17:22:00,46.2,34.7,30.15,NW,309,0.0,0.0,64,0.00,,,0.00,0,Wunderground v.1.15,2013-01-02 01:22:00,
2013-01-01 17:28:00,45.5,34.8,30.15,NW,309,0.0,0.0,66,0.00,,,0.00,0,Wunderground v.1.15,2013-01-02 01:28:00,
2013-01-01 17:34:00,44.9,34.6,30.15,NW,309,0.0,0.0,67,0.00,,,0.00,0,Wunderground v.1.15,2013-01-02 01:34:00,
2013-01-01 17:40:00,44.3,34.8,30.16,NW,309,0.0,0.0,69,0.00,,,0.00,0,Wunderground v.1.15,2013-01-02 01:40:00,
2013-01-01 17:46:00,43.8,34.6,30.16,NW,309,0.0,0.0,70,0.00,,,0.00,0,Wunderground v.1.15,2013-01-02 01:46:00,
2013-01-01 17:52:00,43.3,34.5,30.16,NW,309,0.0,0.0,71,0.00,,,0.00,0,Wunderground v.1.15,2013-01-02 01:52:00,
2013-01-01 17:58:00,42.9,34.5,30.16,NW,309,0.0,0.0,72,0.00,,,0.00,0,Wunderground v.1.15,2013-01-02 01:58:00,
2013-01-01 18:04:00,42.5,34.5,30.16,NW,309,0.0,0.0,73,0.00,,,0.00,0,Wunderground v.1.15,2013-01-02 02:04:00,
2013-01-01 18:10:00,42.1,34.4,30.16,NW,309,0.0,0.0,74,0.00,,,0.00,0,Wunderground v.1.15,2013-01-02 02:10:00,
2013-01-01 18:16:00,41.7,34.4,30.16,NW,309,0.0,0.0,75,0.00,,,0.00,0,Wunderground v.1.15,2013-01-02 02:16:00,
2013-01-01 18:22:00,41.3,34.3,30.16,NW,309,0.0,0.0,76,0.00,,,0.00,0,Wunderground v.1.15,2013-01-02 02:22:00,
2013-01-01 18:28:00,41.1,34.4,30.16,NW,309,0.0,0.0,77,0.00,,,0.00,0,Wunderground v.1.15,2013-01-02 02:28:00,
2013-01-01 18:34:00,40.9,34.6,30.16,NW,309,0.0,0.0,78,0.00,,,0.00,0,Wunderground v.1.15,2013-01-02 02:34:00,
2013-01-01 18:40:00,40.8,34.8,30.16,NW,309,0.0,0.0,79,0.00,,,0.00,0,Wunderground v.1.15,2013-01-02 02:40:00,
2013-01-01 18:46:00,40.8,34.8,30.16,NW,309,0.0,0.0,79,0.00,,,0.00,0,Wunderground v.1.15,2013-01-02 02:46:00,
2013-01-01 18:52:00,40.7,34.7,30.16,NW,309,0.0,0.0,79,0.00,,,0.00,0,Wunderground v.1.15,2013-01-02 02:52:00,
2013-01-01 18:58:00,40.6,34.6,30.16,NW,309,0.0,0.0,79,0.00,,,0.00,0,Wunderground v.1.15,2013-01-02 02:58:00,
2013-01-01 19:04:00,40.6,34.6,30.16,NW,309,0.0,0.0,79,0.00,,,0.00,0,Wunderground v.1.15,2013-01-02 03:04:00,
2013-01-01 19:10:00,40.5,34.5,30.16,NW,309,0.0,0.0,79,0.00,,,0.00,0,Wunderground v.1.15,2013-01-02 03:10:00,
2013-01-01 19:16:00,40.4,34.4,30.16,NW,309,0.0,0.0,79,0.00,,,0.00,0,Wunderground v.1.15,2013-01-02 03:16:00,
2013-01-01 19:22:00,40.3,34.3,30.16,NW,309,0.0,0.0,79,0.00,,,0.00,0,Wunderground v.1.15,2013-01-02 03:22:00,
2013-01-01 19:28:00,40.4,34.4,30.16,NW,309,0.0,0.0,79,0.00,,,0.00,0,Wunderground v.1.15,2013-01-02 03:28:00,
2013-01-01 19:34:00,40.2,34.2,30.16,NW,309,0.0,0.0,79,0.00,,,0.00,0,Wunderground v.1.15,2013-01-02 03:34:00,
2013-01-01 19:40:00,40.0,34.0,30.16,NW,309,0.0,0.0,79,0.00,,,0.00,0,Wunderground v.1.15,2013-01-02 03:40:00,
2013-01-01 19:46:00,39.7,34.0,30.17,NW,309,0.0,0.0,80,0.00,,,0.00,0,Wunderground v.1.15,2013-01-02 03:46:00,
2013-01-01 19:52:00,39.6,34.2,30.16,NW,309,0.0,0.0,81,0.00,,,0.00,0,Wunderground v.1.15,2013-01-02 03:52:00,
2013-01-01 19:58:00,39.5,34.2,30.17,NW,309,0.0,0.0,81,0.00,,,0.00,0,Wunderground v.1.15,2013-01-02 03:58:00,
2013-01-01 20:04:00,39.3,34.0,30.17,NW,309,0.0,0.0,81,0.00,,,0.00,0,Wunderground v.1.15,2013-01-02 04:04:00,
2013-01-01 20:10:00,39.2,34.2,30.17,NW,309,0.0,0.0,82,0.00,,,0.00,0,Wunderground v.1.15,2013-01-02 04:10:00,
2013-01-01 20:16:00,39.0,34.0,30.17,NW,309,0.0,0.0,82,0.00,,,0.00,0,Wunderground v.1.15,2013-01-02 04:16:00,
2013-01-01 20:22:00,38.6,33.6,30.17,NW,309,0.0,0.0,82,0.00,,,0.00,0,Wunderground v.1.15,2013-01-02 04:22:00,
2013-01-01 20:28:00,38.3,33.6,30.17,NW,309,0.0,0.0,83,0.00,,,0.00,0,Wunderground v.1.15,2013-01-02 04:28:00,
2013-01-01 20:34:00,38.1,33.4,30.18,NW,309,0.0,0.0,83,0.00,,,0.00,0,Wunderground v.1.15,2013-01-02 04:34:00,
2013-01-01 20:40:00,37.9,33.2,30.18,NW,309,0.0,0.0,83,0.00,,,0.00,0,Wunderground v.1.15,2013-01-02 04:40:00,
2013-01-01 20:46:00,37.6,32.9,30.18,NW,309,0.0,0.0,83,0.00,,,0.00,0,Wunderground v.1.15,2013-01-02 04:46:00,
2013-01-01 20:52:00,37.3,32.9,30.18,NW,309,0.0,0.0,84,0.00,,,0.00,0,Wunderground v.1.15,2013-01-02 04:52:00,
2013-01-01 20:58:00,37.2,32.8,30.18,NW,309,0.0,0.0,84,0.00,,,0.00,0,Wunderground v.1.15,2013-01-02 04:58:00,
2013-01-01 21:00:00,37.0,32.6,30.18,NW,309,0.0,0.0,84,0.00,,,0.00,0,Wunderground v.1.15,2013-01-02 05:00:00,
2013-01-01 21:02:00,36.9,32.5,30.18,NW,309,0.0,0.0,84,0.00,,,0.00,0,Wunderground v.1.15,2013-01-02 05:02:00,
2013-01-01 21:08:00,36.7,32.3,30.18,NW,309,0.0,0.0,84,0.00,,,0.00,0,Wunderground v.1.15,2013-01-02 05:08:00,
2013-01-01 21:14:00,36.4,32.0,30.18,NW,309,0.0,0.0,84,0.00,,,0.00,0,Wunderground v.1.15,2013-01-02 05:14:00,
2013-01-01 21:16:00,36.3,31.9,30.18,NW,309,0.0,0.0,84,0.00,,,0.00,0,Wunderground v.1.15,2013-01-02 05:16:00,
2013-01-01 21:22:00,35.9,31.8,30.19,NW,309,0.0,0.0,85,0.00,,,0.00,0,Wunderground v.1.15,2013-01-02 05:22:00,
2013-01-01 21:28:00,35.6,31.5,30.18,NW,309,0.0,0.0,85,0.00,,,0.00,0,Wunderground v.1.15,2013-01-02 05:28:00,
2013-01-01 21:34:00,35.4,31.3,30.19,NW,309,0.0,0.0,85,0.00,,,0.00,0,Wunderground v.1.15,2013-01-02 05:34:00,
2013-01-01 21:40:00,35.2,31.4,30.19,NW,309,0.0,0.0,86,0.00,,,0.00,0,Wunderground v.1.15,2013-01-02 05:40:00,
2013-01-01 21:46:00,35.0,31.2,30.19,NW,309,0.0,0.0,86,0.00,,,0.00,0,Wunderground v.1.15,2013-01-02 05:46:00,
2013-01-01 21:52:00,35.0,31.2,30.19,NW,309,0.0,0.0,86,0.00,,,0.00,0,Wunderground v.1.15,2013-01-02 05:52:00,
2013-01-01 21:58:00,35.1,31.3,30.19,NW,309,0.0,0.0,86,0.00,,,0.00,0,Wunderground v.1.15,2013-01-02 05:58:00,
2013-01-01 22:04:00,35.3,31.5,30.19,NW,309,0.0,0.0,86,0.00,,,0.00,0,Wunderground v.1.15,2013-01-02 06:04:00,
2013-01-01 22:10:00,35.7,32.2,30.20,NW,309,0.0,0.0,87,0.00,,,0.00,0,Wunderground v.1.15,2013-01-02 06:10:00,
2013-01-01 22:16:00,36.4,32.6,30.20,NW,311,0.0,0.0,86,0.00,,,0.00,0,Wunderground v.1.15,2013-01-02 06:16:00,
2013-01-01 22:22:00,37.0,33.2,30.20,NW,313,0.0,0.0,86,0.00,,,0.00,0,Wunderground v.1.15,2013-01-02 06:22:00,
2013-01-01 22:28:00,37.7,33.3,30.20,NW,314,0.0,0.0,84,0.00,,,0.00,0,Wunderground v.1.15,2013-01-02 06:28:00,
2013-01-01 22:34:00,38.4,33.4,30.20,NW,324,0.0,0.0,82,0.00,,,0.00,0,Wunderground v.1.15,2013-01-02 06:34:00,
2013-01-01 22:40:00,39.0,33.4,30.20,NW,325,0.0,0.0,80,0.00,,,0.00,0,Wunderground v.1.15,2013-01-02 06:40:00,
2013-01-01 22:46:00,39.3,33.0,30.20,NW,325,0.0,0.0,78,0.00,,,0.00,0,Wunderground v.1.15,2013-01-02 06:46:00,
2013-01-01 22:52:00,39.3,32.7,30.20,NW,325,0.0,0.0,77,0.00,,,0.00,0,Wunderground v.1.15,2013-01-02 06:52:00,
2013-01-01 22:58:00,39.2,32.3,30.20,NNW,327,0.0,0.0,76,0.00,,,0.00,0,Wunderground v.1.15,2013-01-02 06:58:00,
2013-01-01 23:04:00,39.1,31.8,30.20,NNW,329,0.0,0.0,75,0.00,,,0.00,0,Wunderground v.1.15,2013-01-02 07:04:00,
2013-01-01 23:10:00,38.8,31.6,30.20,NNW,329,0.0,0.0,75,0.00,,,0.00,0,Wunderground v.1.15,2013-01-02 07:10:00,
2013-01-01 23:16:00,38.6,31.4,30.20,NNW,329,0.0,0.0,75,0.00,,,0.00,0,Wunderground v.1.15,2013-01-02 07:16:00,
2013-01-01 23:22:00,38.2,31.3,30.20,NNW,329,0.0,0.0,76,0.00,,,0.00,0,Wunderground v.1.15,2013-01-02 07:22:00,
2013-01-01 23:28:00,37.7,30.8,30.21,NNW,329,0.0,0.0,76,0.00,,,0.00,0,Wunderground v.1.15,2013-01-02 07:28:00,
2013-01-01 23:34:00,37.2,30.7,30.20,NNW,329,0.0,0.0,77,0.00,,,0.00,0,Wunderground v.1.15,2013-01-02 07:34:00,
2013-01-01 23:40:00,36.8,30.6,30.20,NNW,329,0.0,0.0,78,0.00,,,0.00,0,Wunderground v.1.15,2013-01-02 07:40:00,
2013-01-01 23:46:00,36.4,30.5,30.20,NNW,329,0.0,0.0,79,0.00,,,0.00,0,Wunderground v.1.15,2013-01-02 07:46:00,
2013-01-01 23:52:00,36.0,30.4,30.20,NNW,329,0.0,0.0,80,0.00,,,0.00,0,Wunderground v.1.15,2013-01-02 07:52:00,
2013-01-01 23:58:00,35.7,30.4,30.20,NNW,329,0.0,0.0,81,0.00,,,0.00,0,Wunderground v.1.15,2013-01-02 07:58:00,